[[{"header":{"parameterUnit":"m.s-1","parameterCategory":1,"la1":30.2991,"la2":30.254,"lo1":-89.0895,"lo2":-89.0444,"dy":0.0017,"dx":0.0017,"nx":28,"ny":28,"refTime":"2025-05-22T21:00:00:Z","depth":0,"parameterNumber":2,"parameterNumberName":"U-component_of_WINDS"},"data":[0,0,0,0,0,0,0,0,0,0,0,0,0,0,0,0,0,0,0,0,0,0,0,0,0,0,0,0,0,0,0,0,0,0,0,0,0,0,0,0,0,0,0,0,0,0,0,0,0,0,0,0,0,0,0,0,0,0,2.3114,2.3115,0,2.3169,2.317,2.317,2.3117,2.3115,2.3113,2.3111,2.3167,2.3171,2.3174,0,0,0,0,0,0,0,0,0,0,0,0,0,2.2963,2.2966,2.3114,2.3115,2.3116,2.3169,2.317,2.3171,2.3117,2.3115,2.3112,2.311,2.3166,2.317,2.3175,0,0,0,0,0,0,0,0,0,0,0,0,0,2.3024,2.2967,2.3114,2.3095,2.3094,2.3169,2.317,2.3171,2.3118,2.3115,2.3112,2.3109,2.3165,2.317,2.3175,2.3271,0,0,2.3191,2.3193,0,0,0,0,0,0,0,0,2.3021,2.303,2.3097,2.3097,2.3096,2.3133,2.3137,2.3204,2.3119,2.3109,2.3111,2.3107,2.3159,2.3164,2.3181,2.3274,2.3276,2.3192,2.3195,2.3197,2.3198,0,0,0,0,0,0,0,2.3017,2.3027,2.3136,2.3099,2.3097,2.3084,2.3089,2.315,2.3151,2.311,2.3106,2.3113,2.3157,2.3176,2.3182,2.3277,2.3191,2.3196,2.3199,2.3201,2.3449,2.3453,0,0,0,0,0,0,2.3014,2.3024,2.3134,2.3138,2.305,2.309,2.3095,2.3124,2.315,2.3151,2.3116,2.311,2.3169,2.3176,2.3184,2.3297,2.3197,2.3202,2.3205,2.3446,2.345,2.3454,0,0,0,0,0,0,2.3011,2.3025,2.3132,2.308,2.3092,2.3096,2.3128,2.3127,2.3146,2.3155,2.3155,2.3135,2.3167,2.3177,2.3249,2.3298,2.3204,2.3209,2.3442,2.3447,2.3452,2.3525,0,0,0,0,0,0,2.3007,2.3024,2.3061,2.3081,2.3095,2.3197,2.3131,2.313,2.3155,2.3149,2.3173,2.3174,2.3165,2.3242,2.3255,2.3304,2.3213,2.3438,2.3444,2.345,2.3518,2.3532,2.3543,0,0,0,0,0,2.3002,2.3079,2.3063,2.3076,2.3141,2.32,2.3208,2.3196,2.3159,2.3196,2.3201,2.3173,2.3291,2.325,2.3264,2.3315,2.3434,2.3442,2.345,2.3512,2.3529,2.3543,0,0,0,0,0,0,2.3064,2.3081,2.3063,2.3149,2.3173,2.3191,2.3236,2.3215,2.325,2.3242,2.3227,2.3233,2.3309,2.332,2.3273,2.3409,2.3357,2.3368,2.3399,2.3415,2.3428,2.3423,2.3217,0,0,0,0,0,2.3088,2.3134,2.3147,2.3221,2.3234,2.3233,2.3258,2.3247,2.3272,2.3282,2.3293,2.3317,2.336,2.3388,2.3428,2.3519,2.3523,2.3561,2.3574,2.3585,2.3594,2.3642,2.3659,2.348,2.3479,2.3479,0,0,2.3137,2.3153,2.3183,2.3234,2.3251,2.3299,2.3242,2.3296,2.3331,2.329,2.3359,2.3368,2.3394,2.3477,2.3513,2.3487,2.3645,2.3595,2.3603,2.3607,2.3652,2.3669,2.3684,2.3485,2.3484,2.3483,0,0,2.3252,2.3268,2.3332,2.335,2.3377,2.3376,2.3391,2.3412,2.3416,2.3485,2.3455,2.3497,2.3571,2.3591,2.3611,2.3732,2.3707,2.3746,2.3812,2.3859,2.3873,2.3886,2.3928,2.3944,2.3755,2.3755,2.3756,0,2.331,2.3381,2.3367,2.3422,2.3445,2.3411,2.3474,2.3493,2.3532,2.3549,2.3519,2.3611,2.3626,2.3712,2.3742,2.3759,2.3776,2.3742,2.3872,2.3885,2.3896,2.3936,2.3953,2.376,2.3759,2.3759,2.3758,0,2.345,2.35,2.3548,2.3586,2.3614,2.3674,2.3669,2.37,2.3686,2.3688,2.3759,2.3776,2.3818,2.3838,2.3826,2.3922,2.3905,2.3875,2.3822,2.3918,2.3955,2.3971,2.3766,2.3765,2.3763,2.3762,0,0,2.3604,2.3634,2.3652,2.3668,2.3695,2.3733,2.3791,2.3832,2.3858,2.3887,2.3934,2.3997,2.3969,2.3991,2.3981,2.4022,2.4116,2.3986,2.3987,2.4009,2.4223,2.4245,2.4263,2.41,2.4103,2.4106,2.422,0,2.3719,2.3818,2.3808,2.3903,2.3948,2.3916,2.3966,2.3988,2.3991,2.403,2.4034,2.4079,2.4038,2.4051,2.4091,2.4097,2.4159,2.4088,2.4144,2.4146,2.4137,2.4283,2.4307,2.4414,2.4235,2.4237,2.4239,0,2.3865,2.3898,2.3997,2.4017,2.4036,2.4081,2.4117,2.4155,2.4179,2.4179,2.4204,2.4186,2.4244,2.4191,2.4269,2.4221,2.4244,2.425,2.4254,2.4257,2.4198,2.429,2.4448,2.4464,2.4262,2.426,2.4259,0,2.3966,2.4035,2.4104,2.4119,2.4144,2.4176,2.4188,2.4209,2.4234,2.4267,2.4283,2.4321,2.4342,2.4372,2.4365,2.4327,2.4446,2.4392,2.4446,2.4447,2.4472,2.447,2.4635,2.4488,2.4488,2.4488,2.4487,0,2.4094,2.4156,2.4149,2.4191,2.4259,2.4247,2.4315,2.4322,2.4342,2.4384,2.4359,2.4399,2.4388,2.4428,2.4423,2.4489,2.4499,2.45,2.4497,2.4501,2.4501,2.4515,2.4507,2.4492,2.4491,2.449,2.4489,0,2.4218,2.4216,2.4288,2.4306,2.4312,2.4361,2.4376,2.4416,2.4417,2.4471,2.4483,2.4486,2.4532,2.4528,2.458,2.4576,2.4657,2.4646,2.4649,2.4646,2.47,2.4695,2.4878,2.4901,2.4741,2.4743,2.4744,0,2.4299,2.4346,2.4369,2.4395,2.4409,2.4453,2.4478,2.4468,2.4496,2.4527,2.4562,2.4606,2.464,2.4714,2.472,2.476,2.4749,2.4811,2.4755,2.4757,2.4749,2.4746,2.475,2.4822,2.4823,2.4825,2.4826,0,2.4443,2.444,2.4477,2.4515,2.4546,2.4575,2.4602,2.4625,2.4617,2.465,2.4696,2.4723,2.4775,2.4818,2.4856,2.4867,2.4846,2.4844,2.4858,2.4862,2.4861,2.4861,2.4678,2.4839,2.4838,2.4837,2.4836,2.4836,2.4547,2.4587,2.4609,2.4652,2.4671,2.4696,2.4733,2.474,2.4778,2.482,2.4812,2.4864,2.4886,2.4934,2.495,2.499,2.4968,2.4989,2.4994,2.4999,2.5005,2.4856,2.4997,2.4997,2.4996,2.4996,2.4996,0,2.4688,2.4701,2.4741,2.4778,2.4812,2.4789,2.4817,2.4846,2.4892,2.4916,2.495,2.5003,2.5045,2.5054,2.5094,2.5125,2.5115,2.5135,2.5132,2.5135,2.5023,2.5006,2.5142,2.5142,2.5142,2.5142,2.5142,2.5142,2.4766,2.4831,2.4831,2.4906,2.4918,2.4968,2.4986,2.5009,2.5028,2.5088,2.5123,2.5129,2.5146,2.5187,2.5224,2.5226,2.5242,2.5265,2.5263,2.5158,2.5143,2.5129,2.5113,2.5269,2.5269,2.5371,2.5372,2.5373]},{"header":{"parameterUnit":"m.s-1","parameterCategory":1,"la1":30.2991,"la2":30.254,"lo1":-89.0895,"lo2":-89.0444,"dy":0.0017,"dx":0.0017,"nx":28,"ny":28,"refTime":"2025-05-22T21:00:00:Z","depth":0,"parameterNumber":3,"parameterNumberName":"V-component_of_WINDS"},"data":[0,0,0,0,0,0,0,0,0,0,0,0,0,0,0,0,0,0,0,0,0,0,0,0,0,0,0,0,0,0,0,0,0,0,0,0,0,0,0,0,0,0,0,0,0,0,0,0,0,0,0,0,0,0,0,0,0,0,2.9785,2.9786,0,2.9876,2.9877,2.9878,2.9853,2.9852,2.985,2.9848,2.994,2.9944,2.9949,0,0,0,0,0,0,0,0,0,0,0,0,0,2.9588,2.9592,2.9785,2.9786,2.9787,2.9876,2.9878,2.9879,2.9854,2.9852,2.9849,2.9847,2.9939,2.9944,2.9949,0,0,0,0,0,0,0,0,0,0,0,0,0,2.9676,2.9593,2.9785,2.9786,2.9787,2.9876,2.9878,2.9879,2.9854,2.9851,2.9849,2.9846,2.9937,2.9943,2.995,3.0043,0,0,2.9969,2.9971,0,0,0,0,0,0,0,0,2.9671,2.9683,2.9784,2.9786,2.9787,2.9851,2.9842,2.9934,2.9855,2.9829,2.9848,2.9845,2.9913,2.9921,2.9944,3.0048,3.0052,2.9969,2.9973,2.9976,2.9978,0,0,0,0,0,0,0,2.9665,2.9679,2.9821,2.9786,2.9788,2.9781,2.9791,2.9859,2.9885,2.9831,2.9829,2.984,2.9913,2.9938,2.9946,3.0053,2.9969,2.9975,2.9978,2.9981,3.0238,3.0241,0,0,0,0,0,0,2.9658,2.9674,2.9818,2.9824,2.9721,2.9787,2.9797,2.9833,2.9884,2.9889,2.9843,2.9839,2.9929,2.9939,2.9949,3.0062,2.9976,2.9982,2.9985,3.0235,3.0239,3.0242,0,0,0,0,0,0,2.9654,2.9671,2.9815,2.9749,2.9766,2.9793,2.9833,2.9836,2.9861,2.9893,2.9897,2.9864,2.9927,2.994,3.002,3.0065,2.9984,2.999,3.0231,3.0236,3.024,3.029,0,0,0,0,0,0,2.9648,2.967,2.9706,2.975,2.977,2.9885,2.9836,2.984,2.9872,2.9868,2.9914,2.9919,2.9926,3.0011,3.0026,3.0072,2.9995,3.0228,3.0234,3.0239,3.0284,3.0295,3.0305,0,0,0,0,0,2.9641,2.9716,2.9708,2.9726,2.9816,2.9887,2.9899,2.9906,2.9876,2.9913,2.9933,2.9917,3.0058,3.0019,3.0037,3.0085,3.0225,3.0232,3.0239,3.028,3.0293,3.0305,0,0,0,0,0,0,2.9677,2.9722,2.9713,2.9804,2.9842,2.9883,2.9929,2.992,2.9967,2.9961,2.9967,2.9977,3.0059,3.008,3.0037,3.0178,3.0137,3.0148,3.0162,3.0175,3.0186,3.0179,3.0,0,0,0,0,0,2.9695,2.975,2.9786,2.9863,2.9882,2.9903,2.9934,2.9936,2.9975,2.9991,3.0017,3.0056,3.0108,3.0143,3.0193,3.0287,3.0296,3.0329,3.0339,3.0347,3.0357,3.0408,3.0423,3.0265,3.0265,3.0265,0,0,2.9734,2.9765,2.9799,2.9871,2.99,2.9956,2.9916,2.9977,3.0019,3.0,3.0077,3.0098,3.0141,3.0228,3.0268,3.0248,3.0402,3.0356,3.0363,3.0368,3.0417,3.0432,3.0445,3.027,3.0269,3.0268,0,0,2.9833,2.9862,2.9929,2.996,3.0005,3.0018,3.0034,3.0077,3.009,3.0167,3.0154,3.0204,3.0294,3.0326,3.0353,3.0464,3.0452,3.048,3.0535,3.0585,3.0597,3.0608,3.0648,3.0662,3.0489,3.0489,3.0489,0,2.9875,2.9959,2.9965,3.0027,3.0059,3.0045,3.0113,3.0142,3.0201,3.0224,3.02,3.0314,3.0342,3.0436,3.0463,3.0486,3.0505,3.0475,3.0595,3.0606,3.0617,3.0655,3.0669,3.0493,3.0492,3.0492,3.0492,0,3.0009,3.0068,3.0116,3.0175,3.0212,3.0277,3.0292,3.0329,3.0327,3.0343,3.0422,3.0455,3.0512,3.0534,3.0533,3.0628,3.0615,3.0593,3.0552,3.0635,3.0671,3.0685,3.0497,3.0496,3.0495,3.0494,0,0,3.0133,3.0194,3.0212,3.0238,3.0287,3.0332,3.0396,3.0452,3.0483,3.0525,3.0578,3.0655,3.0636,3.0667,3.067,3.0713,3.0799,3.0687,3.0688,3.0707,3.0907,3.0923,3.094,3.0791,3.0794,3.0796,3.0903,0,3.0237,3.035,3.0357,3.046,3.0514,3.0501,3.0556,3.0592,3.0608,3.0656,3.0673,3.0728,3.0698,3.0717,3.076,3.078,3.0839,3.0772,3.0841,3.0843,3.0831,3.0958,3.0976,3.1075,3.0917,3.0919,3.0921,0,3.0373,3.0419,3.0527,3.0568,3.0591,3.0641,3.0693,3.0739,3.0779,3.0788,3.0823,3.0819,3.0884,3.084,3.093,3.0884,3.0912,3.0926,3.093,3.0937,3.0888,3.0969,3.1107,3.1123,3.0943,3.0941,3.094,0,3.0453,3.0542,3.0618,3.0641,3.0691,3.0726,3.0749,3.0786,3.0819,3.0864,3.0886,3.0937,3.0966,3.1006,3.1016,3.0983,3.1106,3.1062,3.1115,3.1114,3.1142,3.114,3.1287,3.1159,3.1159,3.1159,3.1158,0,3.0569,3.0635,3.0655,3.0702,3.0776,3.0783,3.0856,3.0876,3.091,3.096,3.0951,3.0999,3.1009,3.1058,3.1066,3.1139,3.1152,3.116,3.1162,3.1162,3.1161,3.1181,3.1174,3.1163,3.1162,3.1161,3.116,0,3.0671,3.0687,3.0769,3.081,3.0821,3.0874,3.0909,3.0954,3.0968,3.1032,3.1047,3.1071,3.1128,3.1142,3.121,3.1215,3.1302,3.1297,3.1289,3.1289,3.1341,3.1336,3.1506,3.1529,3.1386,3.1387,3.1388,0,3.0744,3.0795,3.0841,3.0874,3.0899,3.0952,3.0986,3.0994,3.103,3.108,3.1118,3.1175,3.1221,3.1313,3.1336,3.1388,3.1384,3.144,3.1392,3.139,3.1385,3.1382,3.1388,3.1449,3.1451,3.1452,3.1453,0,3.0872,3.0877,3.0926,3.0979,3.1019,3.1061,3.11,3.1128,3.1142,3.1182,3.1241,3.1277,3.1346,3.1403,3.1455,3.1477,3.1468,3.1468,3.1483,3.1483,3.1477,3.1482,3.1315,3.1464,3.1463,3.1462,3.1462,3.1461,3.0962,3.1007,3.1046,3.1102,3.1132,3.1169,3.1214,3.1234,3.1283,3.1341,3.1343,3.1407,3.1446,3.1515,3.1541,3.1591,3.1574,3.1595,3.1601,3.1606,3.1611,3.1469,3.16,3.16,3.16,3.1599,3.1599,0,3.109,3.1114,3.1165,3.1221,3.1264,3.1251,3.1294,3.1332,3.1388,3.1425,3.1471,3.1538,3.1593,3.162,3.1673,3.1708,3.1705,3.1722,3.172,3.1725,3.1623,3.1605,3.1724,3.1724,3.1724,3.1724,3.1724,3.1724,3.1161,3.1237,3.1247,3.1337,3.1361,3.1424,3.145,3.1484,3.1514,3.159,3.1635,3.1652,3.1685,3.1741,3.1791,3.1797,3.1818,3.1837,3.1841,3.1745,3.1733,3.1721,3.1704,3.1841,3.1841,3.1939,3.194,3.1941]}]]